Showing default

GLOBALSTAR M086, 38045

Orbit data source: Space-Track

GLOBALSTAR M086, 38045 is a payload satellite owned by Globalstar (US) in LEO that was launched on Wed, 28 Dec 2011 UTC via a SOYUZ-2-1A launch vehicle from the Tyuratam Missile And Space Complex (TTMTR). Payload-class satellites include a variety of spacecraft equipped with specific instruments for various scientific and technological missions. These include communications satellites like Starlink; space stations such as the ISS; scientific satellites like the Hubble; Earth observation satellites from companies like Planet Labs, Umbra, and HawkEye 360; GPS; miniature CubeSats for education and research; and military/defense satellites.

Loading next visibility...
Identifier
38045, 2011-080F
Orbit
LEO
Country
Flag of UnknownUnknown / GLOB
Related business
Manufacturer
Thales Alenia
Mission
Operational Commercial Communications
Bus & Motor
PRISMA?, LS-400 AOCS?
Mass
715 kg wet, ~500 kg dry
Launch date (UTC)
2011-12-28 (14 years ago)
Launch vehicle
SOYUZ-2-1A
Launch site
Tyuratam Missile And Space Complex (TTMTR)
Object type
Payload
Rocket body
Debris
Shape & HBR
Trap Cyl + 2 Pan, 6.0 m
Radar Cross Section
20.931 m², Large (>1 m²)

Expand to show TLE details & history
Last TLE update: 1 day ago

TLE from 1 day ago
0 GLOBALSTAR M086
1 38045U 11080F   25301.28680622 -.00000075  00000-0  15822-3 0  9999
2 38045  51.9906 314.5741 0000656 251.4863 122.2554 12.62278701640370
Epoch: 2025-10-28T06:53Z
TLE epoch observation values (Epoch: 2025-10-28T06:53:00.057Z)
Latitude
10.7833°
Longitude
-177.03476°
Altitude
1,413.761 km
Speed
7.155 km/s
True Right ascension
21h 32m 22s
True Declination
10° 43' 32"
Sunlit
Object was in daylight at epoch
Visualization orbit readout
Latitude
Unknown
Longitude
Unknown
Altitude
Unknown
Speed
Unknown
Apparent Right ascension
Unknown
Apparent Declination
Unknown
Sunlit
N/A
Visualization observer readout
Local Sidereal Time
07:16:10
Azimuth
Unknown
Elevation
Unknown
Doppler factor
Unknown
Orbital elements
Apogee altitude
1,414.458 km
Perigee altitude
1,413.436 km
Semi-major axis
7,792.084 km
Eccentricity
0.00007
Inclination
51.9906°
RAAN
314.5741°
Arg. of periapsis
251.4863°
True anomaly
122.26176°
Mean anomaly
122.2554°
Eccentric anomaly
122.25858°
Mean motion
3.15546 °/min
Orbital period
114.09 mins
BSTAR
0.00015822
Loading maneuver chart data...
Computing Atmospheric mass density...
Loading historical data...
Loading historical data...
Loading historical data...
Loading historical data...
Loading historical data...
Loading historical data...
Loading historical data...

Documentation

Showing up to 5 results
|